Date String (YYYY-MM-DD hh:mm:ss) UTC,Instrument flags,absolute air pressure of the measurement (hPa),sample flow rate (lpm),inlet stack bypass flow (lpm),air temperature of the measurement (°C),ambient temperature measured by the external sensor (°C),aerosol sample conditioner tube jacket temperature (°C),OPC LED temperature (°C),internal box temperature (°C),relative humidity of the measurement (%),span deviation,mass concentration of particles derived from Lorenz-Mie calculation of OPC scattering (μg/m³),mass concentration of particles derived from Lorenz-Mie calculation of OPC scattering (μg/m³),mass concentration of particles derived from Lorenz-Mie calculation of OPC scattering (μg/m³)
DateTimeUTC,F1_M11,P_M11,Q1_M11,Q2_M11,T1_M11,T2_M11,T3_M11,T4_M11,T5_M11,U1_M11,ZSPAN_M11,X0_M11,X2_M11,X1_M11
2024-04-15 08:00:00,SystemResetWarning,0819.9,4.99,000.00,026.3,025.5,000.0,034.7,028.1,006.9,0000.0,0007.32,0003.10,0001.93
2024-04-15 08:01:00,SystemResetWarning,0819.8,4.98,000.00,026.3,025.6,000.0,034.7,028.1,006.8,0000.0,0007.48,0003.12,0001.92
2024-04-15 08:02:00,SystemResetWarning,0820.0,5.01,000.00,026.3,025.6,000.0,034.7,028.1,006.6,0000.0,0007.49,0003.11,0001.91
2024-04-15 08:03:00,SystemResetWarning,0820.0,5.00,000.00,026.3,025.6,000.0,034.7,028.1,006.5,0000.0,0007.60,0003.12,0001.88
2024-04-15 08:04:00,SystemResetWarning,0819.8,4.99,000.00,026.3,025.6,000.0,034.7,028.1,006.5,0000.0,0007.92,0003.11,0001.85
2024-04-15 08:05:00,SystemResetWarning,0819.7,5.00,000.00,026.3,025.6,000.0,034.7,028.2,006.5,0000.0,0008.39,0003.10,0001.85
2024-04-15 08:06:00,SystemResetWarning,0819.7,5.02,000.00,026.3,025.6,000.0,034.8,028.2,006.5,0000.0,0008.08,0003.10,0001.84
2024-04-15 08:07:00,SystemResetWarning,0819.9,5.01,000.00,026.4,025.6,000.0,034.8,028.2,006.5,0000.0,0008.02,0003.12,0001.83
2024-04-15 08:08:00,SystemResetWarning,0819.9,4.99,000.00,026.4,025.6,000.0,034.8,028.2,006.7,0000.0,0007.97,0003.08,0001.82
2024-04-15 08:09:00,SystemResetWarning,0819.7,5.00,000.00,026.4,025.6,000.0,034.8,028.2,006.8,0000.0,0008.00,0003.09,0001.82
2024-04-15 08:10:00,SystemResetWarning,0819.6,5.00,000.00,026.4,025.6,000.0,034.8,028.2,006.9,0000.0,0007.96,0003.11,0001.83
2024-04-15 08:11:00,SystemResetWarning,0819.7,4.99,000.00,026.4,025.6,000.0,034.8,028.2,007.0,0000.0,0007.81,0003.09,0001.85
2024-04-15 08:12:00,SystemResetWarning,0819.8,4.99,000.00,026.4,025.6,000.0,034.8,028.2,007.0,0000.0,0007.91,0003.07,0001.85
2024-04-15 08:13:00,SystemResetWarning,0819.6,5.00,000.00,026.4,025.6,000.0,034.8,028.2,007.1,0000.0,0008.07,0003.11,0001.86
2024-04-15 08:14:00,SystemResetWarning,0819.6,5.01,000.00,026.4,025.6,000.0,034.8,028.2,007.5,0000.0,0008.06,0003.13,0001.88
2024-04-15 08:15:00,SystemResetWarning,0819.6,5.00,000.00,026.4,025.6,000.0,034.8,028.2,007.5,0000.0,0008.03,0003.18,0001.90
2024-04-15 08:16:00,SystemResetWarning,0820.0,5.00,000.00,026.4,025.6,000.0,034.8,028.2,007.3,0000.0,0007.41,0003.19,0001.91
2024-04-15 08:17:00,SystemResetWarning,0819.8,5.00,000.00,026.4,025.6,000.0,034.8,028.2,007.2,0000.0,0007.78,0003.22,0001.92
2024-04-15 08:18:00,SystemResetWarning,0819.9,5.00,000.00,026.4,025.6,000.0,034.8,028.2,007.1,0000.0,0007.81,0003.23,0001.93
2024-04-15 08:19:00,SystemResetWarning,0819.9,5.00,000.00,026.4,025.6,000.0,034.8,028.2,007.1,0000.0,0007.73,0003.21,0001.94
2024-04-15 08:20:00,SystemResetWarning,0819.7,5.00,000.00,026.4,025.6,000.0,034.8,028.2,007.1,0000.0,0008.29,0003.23,0001.95
2024-04-15 08:21:00,SystemResetWarning,0819.8,5.00,000.00,026.4,025.6,000.0,034.9,028.3,007.2,0000.0,0009.18,0003.19,0001.93
2024-04-15 08:22:00,SystemResetWarning,0819.8,5.00,000.00,026.4,025.6,000.0,034.9,028.2,007.1,0000.0,0009.17,0003.20,0001.91
2024-04-15 08:23:00,SystemResetWarning,0819.6,5.00,000.00,026.4,025.7,000.0,034.9,028.3,007.0,0000.0,0009.37,0003.22,0001.93
2024-04-15 08:24:00,SystemResetWarning,0819.8,5.00,000.00,026.4,025.7,000.0,034.9,028.3,007.0,0000.0,0009.90,0003.19,0001.93
2024-04-15 08:25:00,SystemResetWarning,0819.7,5.00,000.00,026.5,025.7,000.0,034.9,028.3,007.0,0000.0,0010.75,0003.17,0001.93
2024-04-15 08:26:00,SystemResetWarning,0819.6,4.98,000.00,026.5,025.7,000.0,034.9,028.3,007.0,0000.0,0011.50,0003.20,0001.93
2024-04-15 08:27:00,SystemResetWarning,0819.5,5.00,000.00,026.5,025.7,000.0,034.9,028.3,007.0,0000.0,0011.54,0003.22,0001.96
2024-04-15 08:28:00,SystemResetWarning,0819.7,5.01,000.00,026.5,025.7,000.0,034.9,028.3,007.0,0000.0,0011.26,0003.21,0001.96
2024-04-15 08:29:00,SystemResetWarning,0819.9,5.00,000.00,026.5,025.7,000.0,034.9,028.3,007.0,0000.0,0011.86,0003.21,0001.97
2024-04-15 08:30:00,SystemResetWarning,0819.5,5.00,000.00,026.5,025.7,000.0,034.9,028.3,006.9,0000.0,0012.48,0003.22,0001.98
2024-04-15 08:31:00,SystemResetWarning,0819.6,4.99,000.00,026.5,025.7,000.0,034.9,028.4,006.9,0000.0,0012.01,0003.18,0001.98
2024-04-15 08:32:00,SystemResetWarning,0819.7,5.00,000.00,026.5,025.7,000.0,034.9,028.4,006.9,0000.0,0010.89,0003.17,0001.98
2024-04-15 08:33:00,SystemResetWarning,0819.9,5.01,000.00,026.5,025.7,000.0,035.0,028.4,006.9,0000.0,0011.28,0003.17,0001.98
2024-04-15 08:34:00,SystemResetWarning,0819.5,5.00,000.00,026.5,025.7,000.0,035.0,028.4,006.9,0000.0,0011.19,0003.15,0001.97
2024-04-15 08:35:00,SystemResetWarning,0819.5,5.00,000.00,026.5,025.7,000.0,035.0,028.4,007.5,0000.0,0010.58,0003.15,0001.95
2024-04-15 08:36:00,SystemResetWarning,0819.5,4.99,000.00,026.5,025.7,000.0,035.0,028.4,007.6,0000.0,0010.33,0003.16,0001.96
2024-04-15 08:37:00,SystemResetWarning,0819.5,4.99,000.00,026.6,025.8,000.0,035.0,028.4,007.7,0000.0,0009.24,0003.13,0001.98
2024-04-15 08:38:00,SystemResetWarning,0819.5,5.01,000.00,026.6,025.8,000.0,035.0,028.4,007.7,0000.0,0009.26,0003.15,0001.98
2024-04-15 08:39:00,SystemResetWarning,0819.5,5.00,000.00,026.6,025.8,000.0,035.0,028.4,007.5,0000.0,0009.24,0003.15,0002.01
2024-04-15 08:40:00,SystemResetWarning,0819.5,5.00,000.00,026.6,025.8,000.0,035.0,028.4,007.4,0000.0,0008.68,0003.19,0002.03
2024-04-15 08:41:00,SystemResetWarning,0819.5,5.00,000.00,026.6,025.8,000.0,035.0,028.4,007.5,0000.0,0007.95,0003.21,0002.05
2024-04-15 08:42:00,SystemResetWarning,0819.5,5.00,000.00,026.6,025.8,000.0,035.0,028.4,007.5,0000.0,0008.19,0003.25,0002.06
2024-04-15 08:43:00,SystemResetWarning,0819.6,5.01,000.00,026.6,025.8,000.0,035.0,028.4,007.3,0000.0,0008.14,0003.27,0002.08
2024-04-15 08:44:00,SystemResetWarning,0819.5,4.99,000.00,026.6,025.8,000.0,035.0,028.4,007.3,0000.0,0007.61,0003.27,0002.10
2024-04-15 08:45:00,SystemResetWarning,0819.5,4.99,000.00,026.6,025.8,000.0,035.0,028.4,007.1,0000.0,0007.62,0003.30,0002.12
2024-04-15 08:46:00,SystemResetWarning,0819.4,5.00,000.00,026.6,025.8,000.0,035.0,028.4,007.1,0000.0,0007.69,0003.31,0002.14
2024-04-15 08:47:00,SystemResetWarning,0819.5,5.01,000.00,026.6,025.8,000.0,035.0,028.4,007.0,0000.0,0007.29,0003.29,0002.14
2024-04-15 08:48:00,SystemResetWarning,0819.4,5.00,000.00,026.6,025.8,000.0,035.0,028.4,006.8,0000.0,0007.15,0003.25,0002.11
2024-04-15 08:49:00,SystemResetWarning,0819.5,4.98,000.00,026.6,025.8,000.0,035.0,028.4,006.9,0000.0,0007.14,0003.24,0002.08
2024-04-15 08:50:00,SystemResetWarning,0819.5,5.00,000.00,026.6,025.8,000.0,035.0,028.4,006.9,0000.0,0007.29,0003.23,0002.03
2024-04-15 08:51:00,SystemResetWarning,0819.4,5.01,000.00,026.6,025.8,000.0,035.0,028.4,006.8,0000.0,0007.04,0003.17,0001.98
2024-04-15 08:52:00,SystemResetWarning,0819.4,4.99,000.00,026.6,025.7,000.0,035.0,028.3,006.8,0000.0,0006.83,0003.14,0001.93
2024-04-15 08:53:00,SystemResetWarning,0819.5,4.98,000.00,026.6,025.7,000.0,035.0,028.3,006.7,0000.0,0006.49,0003.12,0001.89
2024-04-15 08:54:00,SystemResetWarning,0819.4,5.00,000.00,026.6,025.7,000.0,035.0,028.3,006.7,0000.0,0006.41,0003.08,0001.85
2024-04-15 08:55:00,SystemResetWarning,0819.4,5.01,000.00,026.5,025.7,000.0,035.0,028.3,006.7,0000.0,0006.36,0003.06,0001.82
2024-04-15 08:56:00,SystemResetWarning,0819.4,5.01,000.00,026.5,025.7,000.0,035.0,028.3,006.8,0000.0,0006.00,0003.02,0001.79
2024-04-15 08:57:00,SystemResetWarning,0819.4,4.99,000.00,026.5,025.7,000.0,035.0,028.3,006.9,0000.0,0006.54,0002.94,0001.76
2024-04-15 08:58:00,SystemResetWarning,0819.4,4.99,000.00,026.5,025.7,000.0,035.0,028.3,007.1,0000.0,0006.89,0002.95,0001.74
2024-04-15 08:59:00,SystemResetWarning,0819.4,5.00,000.00,026.5,025.7,000.0,035.0,028.3,007.0,0000.0,0007.74,0002.97,0001.73
